Zurück zum Katalog

NOAA 16 DEB

AktivPO
NORAD 41086·DEBRIS·🇺🇸 United States

Gestartet Sep 21, 2000 von Vandenberg Space Force Base

Loading…

Nächste Überflüge (nächste 24 Stunden)

TLE

AktuellSource: Space-Track

Epoche: Sep 13, 2026, 11:26 UTC

1 41086U 00055AV  26256.47665185  .00009017  00000-0  14501-2 0  9992
2 41086  98.8186  79.0659 0026538  58.5649 301.8145 14.71584470564714

Verfolge NOAA 16 DEB in Echtzeit mit AllMySat

Download on the App Store